Santiago, Dominican Republic

6:54 PM AST on August 18, 2017 (GMT -0400)
Cibao International

Weather History for MDST - September, 2013

Change the Weather History Date:

Friday, September 20, 2013

  Actual Average Record
Temperature  
Mean Temperature 82 °F -  
Max Temperature 94 °F 91 °F 96 °F (2015)
Min Temperature 71 °F 71 °F 69 °F (2003)
Cooling Degree Days 18    
Growing Degree Days 32 (Base 50)    
Moisture  
Dew Point 73 °F    
Average Humidity 89    
Maximum Humidity 100    
Minimum Humidity 52    
Precipitation  
Precipitation 0.55 in 0.14 in - ()
Sea Level Pressure  
Sea Level Pressure 29.91 in    
Wind  
Wind Speed 4 mph ()    
Max Wind Speed 21 mph    
Max Gust Speed -    
Visibility 5.1 miles    
Events Rain , Thunderstorm    
Averages and records for this station are not official NWS values.
T = Trace of Precipitation, MM = Missing Value Source: Averaged Metar Reports

Daily Weather History Graph

Daily Weather History Graph

Search for Another Location

Airport or City:

Trip Planner

Search our weather history database for the weather conditions in past years. The results will help you decide how hot, cold, wet, or windy it might be!

Date:

Astronomy

Sep. 20, 2013 Rise Set
Actual Time 6:31 AM AST 6:40 PM AST
Civil Twilight 6:09 AM AST 7:02 PM AST
Nautical Twilight 5:43 AM AST 7:28 PM AST
Astronomical Twilight 5:18 AM AST 7:53 PM AST
Moon 7:31 PM AST (9/20) 7:27 AM AST (9/20)
Length of Visible Light 12h 53m
Length of Day
12h 09m
Full, 98% of the Moon is Illuminated
Sep 20
Full
Sep 26
Last Quarter
Oct 4
New
Oct 11
First Quarter
Oct 18
Full

Hourly Weather History & Observations

Time (AST) Temp. Heat Index Dew Point Humidity Pressure Visibility Wind Dir Wind Speed Gust Speed Precip Events Conditions
12:00 AM 75.2 °F - 75.2 °F 100% 29.95 in 6.2 mi SW 4.6 mph - N/A   Scattered Clouds
1:00 AM 75.2 °F - 75.2 °F 100% 29.95 in 6.2 mi North 5.8 mph - N/A   Scattered Clouds
2:00 AM 75.2 °F - 75.2 °F 100% 29.95 in 6.2 mi North 5.8 mph - N/A   Scattered Clouds
3:00 AM 75.2 °F - 75.2 °F 100% 29.95 in 6.2 mi North 5.8 mph - N/A   Scattered Clouds
4:00 AM 73.4 °F - 73.4 °F 100% 29.89 in 6.2 mi NW 4.6 mph - N/A   Scattered Clouds
7:00 AM 71.6 °F - 71.6 °F 100% 29.92 in 6.2 mi Calm Calm - N/A   Partly Cloudy
8:00 AM 71.6 °F - 71.6 °F 100% 29.92 in 6.2 mi Calm Calm - N/A   Scattered Clouds
9:00 AM 78.8 °F - 71.6 °F 78% 29.95 in 6.2 mi SSE 4.6 mph - N/A   Partly Cloudy
10:00 AM 82.4 °F 87.2 °F 71.6 °F 70% 29.95 in 6.2 mi SE 4.6 mph - N/A   Partly Cloudy
11:00 AM 86.0 °F 93.4 °F 73.4 °F 66% 29.95 in 6.2 mi Calm Calm - N/A   Mostly Cloudy
12:00 PM 87.8 °F 95.6 °F 73.4 °F 62% 29.92 in 6.2 mi Calm Calm - N/A   Mostly Cloudy
1:00 PM 91.4 °F 98.4 °F 71.6 °F 52% 29.89 in 6.2 mi Calm Calm - N/A   Scattered Clouds
2:00 PM 86 °F - 74 °F 59% 29.89 in 5 mi ESE 11.2 mph - -   Haze
2:00 PM 93.2 °F 110.2 °F 78.8 °F 63% 29.86 in 4.3 mi SE 9.2 mph - N/A Thunderstorm Thunderstorm
3:00 PM - - - N/A% 29.89 in 4.3 mi NE 20.7 mph - N/A Thunderstorm Thunderstorm
3:27 PM 75.2 °F - 73.4 °F 94% 29.89 in 1.9 mi NNE 11.5 mph - N/A Rain , Thunderstorm Thunderstorms and Rain
4:00 PM 73.4 °F - 71.6 °F 94% 29.89 in 6.2 mi NNE 11.5 mph - N/A   Overcast
4:11 PM 71.6 °F - 71.6 °F 100% 29.86 in 3.7 mi SW 5.8 mph - N/A Rain , Thunderstorm Light Thunderstorms and Rain
5:00 PM 72 °F - - 218% 29.89 in 4 mi West 4.5 mph - - Rain , Thunderstorm Thunderstorms and Rain
5:00 PM 71.6 °F - 71.6 °F 100% 29.89 in 3.7 mi West 4.6 mph - N/A Rain , Thunderstorm Light Thunderstorms and Rain
6:00 PM 73.4 °F - 73.4 °F 100% 29.92 in - Calm Calm - N/A Rain , Thunderstorm Light Thunderstorms and Rain
7:00 PM 73.4 °F - 73.4 °F 100% 29.92 in - NE 4.6 mph - N/A Rain Light Rain
8:00 PM 72 °F - 71 °F 97% 29.94 in 4 mi Calm Calm - - Rain Light Rain
8:00 PM 71.6 °F - 71.6 °F 100% 29.92 in 3.7 mi Calm Calm - N/A Rain Light Rain
9:00 PM 73.4 °F - 71.6 °F 94% 29.92 in 5.0 mi SSW 4.6 mph - N/A Rain , Thunderstorm Light Thunderstorms and Rain
10:00 PM 73.4 °F - 71.6 °F 94% 29.89 in 3.1 mi Variable 2.3 mph - N/A   Overcast
11:00 PM 73.4 °F - 71.6 °F 94% 29.89 in 3.1 mi West 4.6 mph - N/A   Overcast